sat.trackr.live / text

‹ back to catalog

2026-106B

NORAD 69098 · 2026-106B

PAYLOAD ACTIVE UNKNOWN

§ Identity

Operator
Country
PRC
Launch date
2026-05-15
Launch site
JSC
Launch vehicle
Mass (kg)
RCS (m²)

External: N2YO · Heavens-Above · Gunter

§ Orbital elements

Epoch: 2026-09-20T04:39:02.878848Z

Period
95.35 min
Inclination
97.5018°
Eccentricity
0.0014370
Mean motion
15.10244013 rev/d
Perigee alt
525.5 km
Apogee alt
545.4 km
Semi-major
6,913.6 km
B*
1.4268e-4
RAAN
343.2901°
Arg perigee
189.7812°
Mean anomaly
170.3140°
Rev number
1,931

§ Raw data

2026-106B1 69098U 26106B   26263.19378332  .00002275  00000+0  14268-3 0  99912 69098  97.5018 343.2901 0014370 189.7812 170.3140 15.10244013 19318

JSON: /api/v1/satellites/69098 · /tle

For live sub-satellite position, see the globe view (requires WebGL).

§ Visibility from observer

Set your observer location to see the next 7 days of passes ≥ 10°. The values pass through the URL so the page stays shareable.

No JS? Fill the form by hand. The geolocation button needs JavaScript.